Grand Isle Weather Center

Moon Phase Calendar



Online Cameras

 


      

Current Conditions in Grand Isle
3/8/2021 7:21:56 AM

48°F
Feels Like 42
Clear
Humidity
87%
Pressure
30.5"
Wind
9.2 mph (NE)
Dew Point
44°F
UV Index
0/10 (Low)
Visibility
6 mi

Hourly Forecast

Date & Time Mon, Mar 8
7:00 AM
Mon, Mar 8
8:00 AM
Mon, Mar 8
9:00 AM
Mon, Mar 8
10:00 AM
Mon, Mar 8
11:00 AM
Mon, Mar 8
12:00 PM
Mon, Mar 8
1:00 PM
Mon, Mar 8
2:00 PM
Mon, Mar 8
3:00 PM
Mon, Mar 8
4:00 PM
Mon, Mar 8
5:00 PM
Mon, Mar 8
6:00 PM
Mon, Mar 8
7:00 PM
Mon, Mar 8
8:00 PM
Mon, Mar 8
9:00 PM
Mon, Mar 8
10:00 PM
Mon, Mar 8
11:00 PM
Tue, Mar 9
12:00 AM
Tue, Mar 9
1:00 AM
Tue, Mar 9
2:00 AM
Tue, Mar 9
3:00 AM
Tue, Mar 9
4:00 AM
Tue, Mar 9
5:00 AM
Tue, Mar 9
6:00 AM
Tue, Mar 9
7:00 AM
Tue, Mar 9
8:00 AM
Tue, Mar 9
9:00 AM
Tue, Mar 9
10:00 AM
Tue, Mar 9
11:00 AM
Tue, Mar 9
12:00 PM
Tue, Mar 9
1:00 PM
Tue, Mar 9
2:00 PM
Tue, Mar 9
3:00 PM
Tue, Mar 9
4:00 PM
Tue, Mar 9
5:00 PM
Tue, Mar 9
6:00 PM
Tue, Mar 9
7:00 PM
Tue, Mar 9
8:00 PM
Tue, Mar 9
9:00 PM
Tue, Mar 9
10:00 PM
Tue, Mar 9
11:00 PM
Wed, Mar 10
12:00 AM
Wed, Mar 10
1:00 AM
Wed, Mar 10
2:00 AM
Wed, Mar 10
3:00 AM
Wed, Mar 10
4:00 AM
Wed, Mar 10
5:00 AM
Wed, Mar 10
6:00 AM
Condition
Clear

Clear

Clear

Clear

Clear

Clear

Clear

Clear

Clear

Clear

Clear

Clear

Clear

Clear

Clear

Clear

Clear

Clear

Clear

Clear

Clear

Clear

Clear

Clear

Clear

Clouds

Clouds

Clouds

Clouds

Clouds

Clear

Clouds

Clouds

Clouds

Clouds

Clouds

Clear

Clear

Clouds

Clouds

Clouds

Clouds

Clouds

Clouds

Clouds

Clouds

Clouds

Clouds
Temperature 48°F54°F58°F62°F63°F64°F64°F64°F65°F65°F64°F64°F64°F64°F64°F64°F63°F63°F63°F63°F62°F62°F63°F63°F64°F65°F65°F65°F66°F66°F66°F67°F67°F67°F67°F66°F66°F66°F67°F67°F67°F66°F66°F66°F66°F66°F66°F67°F
Feels Like 42°F47°F51°F54°F57°F59°F59°F59°F59°F57°F56°F57°F57°F57°F56°F56°F56°F55°F55°F54°F53°F54°F54°F55°F56°F56°F56°F57°F58°F59°F60°F60°F62°F62°F61°F61°F59°F61°F60°F59°F60°F60°F59°F58°F57°F57°F58°F58°F
Cloudiness 1%1%0%0%0%0%0%0%0%0%0%0%0%0%0%0%0%0%0%0%0%0%0%0%0%18%45%36%31%27%0%21%14%15%14%13%5%6%37%53%62%69%97%81%57%60%53%60%
Visibility 6 mi6 mi6 mi6 mi6 mi6 mi6 mi6 mi6 mi6 mi6 mi6 mi6 mi6 mi6 mi6 mi6 mi6 mi6 mi6 mi6 mi6 mi6 mi6 mi6 mi6 mi6 mi6 mi6 mi6 mi6 mi6 mi6 mi6 mi6 mi6 mi6 mi6 mi6 mi6 mi6 mi6 mi6 mi6 mi6 mi6 mi6 mi6 mi
Precipitation 0%0%0%0%0%0%0%0%0%0%0%0%0%0%0%0%0%0%0%0%0%0%0%0%0%0%0%0%0%0%0%0%0%0%0%0%0%0%0%0%0%0%0%0%0%0%0%0%
Humidity 87%73%63%57%54%54%55%60%60%62%63%65%66%66%64%66%66%66%65%64%64%65%66%68%71%70%70%71%73%75%78%77%75%77%77%79%79%77%74%73%73%74%77%78%77%77%76%76%
Dew Point 44°F45°F46°F46°F46°F47°F48°F50°F51°F52°F52°F52°F53°F53°F52°F52°F52°F52°F51°F51°F50°F51°F51°F53°F54°F55°F55°F56°F57°F58°F59°F59°F59°F59°F59°F60°F59°F59°F58°F58°F58°F58°F59°F59°F59°F59°F59°F59°F
Pressure 30.5"30.5"30.5"30.5"30.5"30.5"30.47"30.47"30.45"30.45"30.45"30.45"30.45"30.47"30.47"30.47"30.47"30.47"30.45"30.45"30.42"30.42"30.42"30.45"30.45"30.47"30.47"30.47"30.45"30.45"30.42"30.39"30.39"30.36"30.36"30.36"30.39"30.39"30.39"30.39"30.36"30.36"30.33"30.33"30.3"30.3"30.3"30.3"
Wind Speed 9.2 mph10.6 mph11.3 mph11.7 mph10.3 mph8.6 mph8.9 mph10.8 mph11 mph14.3 mph15.5 mph14.7 mph15.2 mph14 mph14.1 mph14.1 mph13.8 mph15.3 mph14.2 mph16.2 mph16.7 mph15.7 mph15.5 mph15 mph14.9 mph17.3 mph18.6 mph17.5 mph16.6 mph16.2 mph15.6 mph16.5 mph14 mph14.4 mph15.1 mph14.4 mph17.6 mph15.6 mph16.8 mph17.5 mph16.1 mph16.4 mph18.3 mph19.3 mph20.3 mph20.1 mph18.9 mph19.4 mph
Wind
Direction
52°
NE
55°
NE
68°
ENE
90°
E
102°
ESE
111°
ESE
118°
ESE
116°
ESE
118°
ESE
131°
SE
127°
SE
119°
ESE
114°
ESE
106°
ESE
104°
ESE
105°
ESE
104°
ESE
102°
ESE
101°
E
98°
E
96°
E
101°
E
103°
ESE
110°
ESE
118°
ESE
124°
SE
129°
SE
125°
SE
119°
ESE
115°
ESE
109°
ESE
121°
ESE
125°
SE
120°
ESE
123°
ESE
114°
ESE
111°
ESE
114°
ESE
121°
ESE
122°
ESE
126°
SE
122°
ESE
120°
ESE
125°
SE
129°
SE
131°
SE
134°
SE
134°
SE

Daily Forecast

Date High Low Precip. Humidity
Today
Mar 8

Clear
65 °F
48 °F
0%
54%
Tuesday
Mar 9

Clouds
67 °F
62 °F
0%
75%
Wednesday
Mar 10

Clouds
69 °F
66 °F
0%
73%
Thursday
Mar 11

Rain
69 °F
67 °F
21%
82%
Friday
Mar 12

Rain
69 °F
68 °F
29%
84%
Saturday
Mar 13

Rain
69 °F
68 °F
24%
84%
Sunday
Mar 14

Rain
71 °F
69 °F
88%
81%
Monday
Mar 15

Rain
66 °F
62 °F
70%
63%
Tuesday
Mar 16

Rain
71 °F
66 °F
67%
89%
Wednesday
Mar 17

Rain
72 °F
70 °F
27%
90%
Thursday
Mar 18

Rain
71 °F
63 °F
96%
69%
Friday
Mar 19

Rain
62 °F
53 °F
95%
73%
Saturday
Mar 20

Clear
60 °F
48 °F
0%
60%
Sunday
Mar 21

Clear
61 °F
52 °F
0%
51%
Monday
Mar 22

Clouds
63 °F
56 °F
18%
66%
Tuesday
Mar 23

Clear
66 °F
58 °F
9%
56%


Temperature 8-14 Day Outlook



Precipitation 8-14 Day Outlook




Quick Links
Grand Isle News
Grand Isle Photos
Grand Isle Videos




About Us
Contact Us
Site Map
Search Site
Advertise With Us
   
GrandIsle.USCoast.info
THE GRAND ISLE WEBSITE

Copyright 2021, Coastal Town
Privacy    |    Legal